Weather in Destin

United States     30°23′49″N   86°29′02″W
temp.,
°C
wind,
m/s
gust,
m/s
humid.,
%
clouds,
%
prec.,
mm/h
press.,
hPa
HPBL,
m
23 may, mon
mon2323:00+25sse71481100 4.6 1018689
02:00+25s81487100 11.3 1016689
05:00+24sw81489100 6.1 1016803
08:00+22wnw3694100 15.4 1018271
11:00+23ssw5988100 5.8 1019738
14:00+23wnw2488100 6.1 1017224
17:00+27sw3462100 0.0 1016850
20:00+24sw1281100 0.1 101767
24 may, tue
tue2423:00+23ne2284100 0.0 101758
02:00+22e238978 0.0 101687
05:00+22ene2285100 0.0 101550
08:00+22e3584100 0.1 1016199
11:00+25ese3578100 0.4 1017402
14:00+27se5667100 0.4 1016827
17:00+27sse466781 0.1 1015834
20:00+26sse247666 0.3 1015198
25 may, wed
wed2523:00+24se249094 0.1 1017110
02:00+23ese369391 0.3 1016200
05:00+23ese4990100 0.0 1015367
08:00+24ese41086100 0.0 1016560
11:00+28sse6964100 0.1 10171128
14:00+25s5876100 0.9 1018804
17:00+24s71073100 0.1 1017893
20:00+24sse5867100 0.1 1016679
26 may, thu
thu2623:00+24s3682100 0.3 1016285
02:00+23se358418 0.3 1016152
05:00+23se5118770 0.6 1015487
08:00+24sse71286100 3.1 1015838
11:00+25sse81384100 4.9 1016964
14:00+26s8138499 10.8 10151064
17:00+25s71287100 3.8 1013976
20:00+24sw71289100 21.8 1012925
27 may, fri
fri2723:00+24ssw7138788 10.3 1013686
02:00+23sw5119010 15.3 1013476
05:00+22sw389314 1.6 1012318
08:00+24sw38900 1.8 1013472
11:00+28wsw69570 0.0 10131589
14:00+30wsw812420 0.0 10121920
17:00+29sw79390 0.0 10101688
20:00+25wsw59580 0.0 1010544